Regional Weather Roundup
Issued by NWS

Home | Current Version | Previous Version | Text Only | Print | Product List | Glossary Off
Versions: 1 2 3 4 5 6 7 8 9 10 11 12 13 14 15 16 17 18 19 20 21 22 23 24 25 26 27

000
ASUS45 KCYS 240010
RWRWY

WYOMING REGIONAL WEATHER ROUNDUP
NATIONAL WEATHER SERVICE CHEYENNE WY
500 PM MST THU FEB 23 2017

NOTE:  "FAIR" INDICATES FEW OR NO CLOUDS BELOW 12,000 FEET
WITH NO SIGNIFICANT WEATHER AND/OR OBSTRUCTIONS TO VISIBILITY.

WYZ001-240100-
YELLOWSTONE NATIONAL PARK

CITY           SKY/WX    TMP DP  RH WIND       PRES   REMARKS
LK YELLOWSTONE   N/A     17   4  56 NE6       29.71S WCI   9
6HR MIN TEMP:  17; 6HR MAX TEMP:  20;

W YELLOWSTONE  NOT AVBL

$$
WYZ002>013-054>058-071-098>099-240100-
NORTHERN WYOMING

CITY           SKY/WX    TMP DP  RH WIND       PRES   REMARKS
JACKSON        CLOUDY    25  19  80 N23       29.68R WCI  10
CODY           LGT SNOW  21  18  88 N14G23    29.85R FOG     WCI   8
GREYBULL       CLOUDY    29  19  66 NW18      29.80R WCI  16
6HR MIN TEMP:  29; 6HR MAX TEMP:  32;

WORLAND        CLOUDY    27  23  85 NW13      29.83R WCI  16
6HR MIN TEMP:  27; 6HR MAX TEMP:  29; 6HR PCP:  0.01;

SHERIDAN       CLOUDY    28  22  78 E12       29.91R WCI  18
6HR MIN TEMP:  27; 6HR MAX TEMP:  30; 6HR PCP: TRACE;

BUFFALO        LGT SNOW  24  20  84 NE7       29.87R FOG     WCI  16
6HR MIN TEMP:  24; 6HR MAX TEMP:  26; 6HR PCP:  0.05;

GILLETTE       LGT SNOW  24  21  88 NE13      29.87R FOG     WCI  12
6HR MIN TEMP:  24; 6HR MAX TEMP:  28; 6HR PCP:  0.02;

HULETT         CLOUDY    27  21  80 MISG      29.90R
NEWCASTLE      LGT SNOW  27  27 100 SW5       29.85R WCI  21

$$
WYZ014>020-022>026-101>103-240100-
CENTRAL WYOMING

CITY           SKY/WX    TMP DP  RH WIND       PRES   REMARKS
BIG PINEY      SNOW      22  16  78 SE6       29.68R WCI  14
6HR MIN TEMP:  22; 6HR MAX TEMP:  27; 6HR PCP: TRACE;

PINEDALE       CLOUDY    23  18  80 S3        29.67R
DUBOIS         SNOW      19  18  93 E7        29.70R VSB 1/2 WCI  10
LANDER         LGT SNOW  22  20  92 N10       29.77R VSB 3/4 WCI  11
6HR MIN TEMP:  22; 6HR MAX TEMP:  24; 6HR PCP:  0.05;

RIVERTON       LGT SNOW  22  19  89 N16       29.78R VSB 3/4 WCI   8
6HR MIN TEMP:  22; 6HR MAX TEMP:  23; 6HR PCP:  0.18;

CASPER         LGT SNOW  19  16  88 E14       29.79R FOG     WCI   6
6HR MIN TEMP:  19; 6HR MAX TEMP:  23; 6HR PCP:  0.07;

DOUGLAS        SNOW      19  17  92 SE5       29.84R VSB 1/4 WCI  12
6HR MIN TEMP:  19; 6HR MAX TEMP:  23; 6HR PCP: TRACE;


$$
WYZ021-027>030-104>119-240100-
SOUTHERN WYOMING

CITY           SKY/WX    TMP DP  RH WIND       PRES   REMARKS
EVANSTON       CLOUDY    19  12  74 SW16      29.71R WCI   4
6HR MIN TEMP:  19; 6HR MAX TEMP:  22; 6HR PCP: TRACE;

FORT BRIDGER   CLOUDY    22  20  93 W20G25    29.72R FOG     WCI   7
ROCK SPRINGS   MIX PCPN  21  15  78 N23G30    29.66R WCI   5
6HR MIN TEMP:  21; 6HR MAX TEMP:  23; 6HR PCP:  0.02;

DIXON            N/A     25  18  74 SW15      29.67R WCI  13
RAWLINS        SNOW      17  13  84 E26       29.64R VSB 1/2 WCI  -2
6HR MIN TEMP:  17; 6HR MAX TEMP:  24; 6HR PCP:  0.01;

SARATOGA       FLURRIES  21  18  86 W8        29.64R WCI  12
LARAMIE        CLOUDY    15   7  70 NE10      29.65R WCI   2
6HR MIN TEMP:  15; 6HR MAX TEMP:  22; 6HR PCP:  0.01;

CHEYENNE       LGT SNOW  16  12  84 N14G23    29.71R VSB 1   WCI   2
6HR MIN TEMP:  16; 6HR MAX TEMP:  23; 6HR PCP:  0.03;

TORRINGTON     HVY SNOW  21  19  92 N6        29.83R VSB 1/4 WCI  13
6HR MIN TEMP:  21; 6HR MAX TEMP:  24; 6HR PCP: TRACE;

PINE BLUFFS    CLOUDY    19  18  93 N13G25    29.74R WCI   7

$$




USA.gov is the U.S. government's official web portal to all federal, state and local government web resources and services.